Location: Ostrava
(49.8330°N, 18.2830°E)
Time: 06:58:19
(UTC+01:00)

Vanguard 2 Rocket - Visible Passes

Search period start: 28 February 2017 00:00
Search period end: 10 March 2017 00:00
Orbit: 553 x 3329 km, 32.9° (Epoch: 27 February)

Date Brightness Start Highest point End Pass type
(mag) Time Alt. Az. Time Alt. Az. Time Alt. Az.
02 Mar 11.3 05:38:31 10° SSE 05:47:18 15° SE 05:56:20 10° ESE visible
04 Mar 11.0 05:48:15 10° S 06:00:19 22° SE 06:13:09 10° E visible
05 Mar 11.1 04:51:59 10° SSE 05:00:14 15° SE 05:09:07 10° ESE visible
07 Mar 10.8 05:02:05 10° S 05:13:08 21° SE 05:25:48 10° E visible
08 Mar 10.8 04:06:14 10° SSE 04:13:18 14° SE 04:21:14 10° ESE visible
09 Mar 10.5 05:13:51 10° SSW 05:26:11 27° SE 05:41:03 10° E visible
